Index of /20260430/WXO-DD/model_gdps/15km/12/036
Name Last modified Size Description
Parent Directory -
20260430T12Z_MSC_GDPS_AbsoluteVorticity_IsbL-0200_LatLon0.15_PT036H.grib2 2026-04-30 15:59 1.5M
20260430T12Z_MSC_GDPS_AbsoluteVorticity_IsbL-0250_LatLon0.15_PT036H.grib2 2026-04-30 15:59 1.3M
20260430T12Z_MSC_GDPS_AbsoluteVorticity_IsbL-0500_LatLon0.15_PT036H.grib2 2026-04-30 15:59 1.5M
20260430T12Z_MSC_GDPS_AbsoluteVorticity_IsbL-0700_LatLon0.15_PT036H.grib2 2026-04-30 15:59 1.6M
20260430T12Z_MSC_GDPS_AbsoluteVorticity_IsbL-0850_LatLon0.15_PT036H.grib2 2026-04-30 15:59 1.6M
20260430T12Z_MSC_GDPS_AirTemp-Max_AGL-2m_LatLon0.15_PT036H.grib2 2026-04-30 15:59 743K
20260430T12Z_MSC_GDPS_AirTemp-Min_AGL-2m_LatLon0.15_PT036H.grib2 2026-04-30 15:59 794K
20260430T12Z_MSC_GDPS_AirTemp_AGL-120m_LatLon0.15_PT036H.grib2 2026-04-30 15:59 791K
20260430T12Z_MSC_GDPS_AirTemp_AGL-2m_LatLon0.15_PT036H.grib2 2026-04-30 15:59 1.0M
20260430T12Z_MSC_GDPS_AirTemp_AGL-40m_LatLon0.15_PT036H.grib2 2026-04-30 15:59 814K
20260430T12Z_MSC_GDPS_AirTemp_AGL-80m_LatLon0.15_PT036H.grib2 2026-04-30 15:59 801K
20260430T12Z_MSC_GDPS_AirTemp_IsbL-0001_LatLon0.15_PT036H.grib2 2026-04-30 15:59 658K
20260430T12Z_MSC_GDPS_AirTemp_IsbL-0005_LatLon0.15_PT036H.grib2 2026-04-30 15:59 684K
20260430T12Z_MSC_GDPS_AirTemp_IsbL-0010_LatLon0.15_PT036H.grib2 2026-04-30 15:59 762K
20260430T12Z_MSC_GDPS_AirTemp_IsbL-0020_LatLon0.15_PT036H.grib2 2026-04-30 15:59 787K
20260430T12Z_MSC_GDPS_AirTemp_IsbL-0030_LatLon0.15_PT036H.grib2 2026-04-30 15:59 750K
20260430T12Z_MSC_GDPS_AirTemp_IsbL-0050_LatLon0.15_PT036H.grib2 2026-04-30 15:59 807K
20260430T12Z_MSC_GDPS_AirTemp_IsbL-0100_LatLon0.15_PT036H.grib2 2026-04-30 15:59 959K
20260430T12Z_MSC_GDPS_AirTemp_IsbL-0150_LatLon0.15_PT036H.grib2 2026-04-30 15:59 1.0M
20260430T12Z_MSC_GDPS_AirTemp_IsbL-0175_LatLon0.15_PT036H.grib2 2026-04-30 15:59 960K
20260430T12Z_MSC_GDPS_AirTemp_IsbL-0200_LatLon0.15_PT036H.grib2 2026-04-30 15:59 972K
20260430T12Z_MSC_GDPS_AirTemp_IsbL-0225_LatLon0.15_PT036H.grib2 2026-04-30 15:59 1.0M
20260430T12Z_MSC_GDPS_AirTemp_IsbL-0250_LatLon0.15_PT036H.grib2 2026-04-30 15:59 1.0M
20260430T12Z_MSC_GDPS_AirTemp_IsbL-0275_LatLon0.15_PT036H.grib2 2026-04-30 15:59 1.0M
20260430T12Z_MSC_GDPS_AirTemp_IsbL-0300_LatLon0.15_PT036H.grib2 2026-04-30 15:59 1.0M
20260430T12Z_MSC_GDPS_AirTemp_IsbL-0350_LatLon0.15_PT036H.grib2 2026-04-30 15:59 927K
20260430T12Z_MSC_GDPS_AirTemp_IsbL-0400_LatLon0.15_PT036H.grib2 2026-04-30 15:59 936K
20260430T12Z_MSC_GDPS_AirTemp_IsbL-0450_LatLon0.15_PT036H.grib2 2026-04-30 15:59 959K
20260430T12Z_MSC_GDPS_AirTemp_IsbL-0500_LatLon0.15_PT036H.grib2 2026-04-30 15:59 1.0M
20260430T12Z_MSC_GDPS_AirTemp_IsbL-0550_LatLon0.15_PT036H.grib2 2026-04-30 15:59 796K
20260430T12Z_MSC_GDPS_AirTemp_IsbL-0600_LatLon0.15_PT036H.grib2 2026-04-30 15:59 892K
20260430T12Z_MSC_GDPS_AirTemp_IsbL-0650_LatLon0.15_PT036H.grib2 2026-04-30 15:59 921K
20260430T12Z_MSC_GDPS_AirTemp_IsbL-0700_LatLon0.15_PT036H.grib2 2026-04-30 15:59 954K
20260430T12Z_MSC_GDPS_AirTemp_IsbL-0750_LatLon0.15_PT036H.grib2 2026-04-30 15:59 1.0M
20260430T12Z_MSC_GDPS_AirTemp_IsbL-0800_LatLon0.15_PT036H.grib2 2026-04-30 15:59 1.1M
20260430T12Z_MSC_GDPS_AirTemp_IsbL-0850_LatLon0.15_PT036H.grib2 2026-04-30 15:59 1.1M
20260430T12Z_MSC_GDPS_AirTemp_IsbL-0875_LatLon0.15_PT036H.grib2 2026-04-30 15:59 1.1M
20260430T12Z_MSC_GDPS_AirTemp_IsbL-0900_LatLon0.15_PT036H.grib2 2026-04-30 15:59 1.1M
20260430T12Z_MSC_GDPS_AirTemp_IsbL-0925_LatLon0.15_PT036H.grib2 2026-04-30 15:59 1.1M
20260430T12Z_MSC_GDPS_AirTemp_IsbL-0950_LatLon0.15_PT036H.grib2 2026-04-30 15:59 1.1M
20260430T12Z_MSC_GDPS_AirTemp_IsbL-0970_LatLon0.15_PT036H.grib2 2026-04-30 15:59 1.2M
20260430T12Z_MSC_GDPS_AirTemp_IsbL-0985_LatLon0.15_PT036H.grib2 2026-04-30 15:59 1.1M
20260430T12Z_MSC_GDPS_AirTemp_IsbL-1000_LatLon0.15_PT036H.grib2 2026-04-30 15:59 1.1M
20260430T12Z_MSC_GDPS_AirTemp_IsbL-1015_LatLon0.15_PT036H.grib2 2026-04-30 15:59 1.1M
20260430T12Z_MSC_GDPS_Albedo_Sfc_LatLon0.15_PT036H.grib2 2026-04-30 15:59 242K
20260430T12Z_MSC_GDPS_CAPE_Sfc_LatLon0.15_PT036H.grib2 2026-04-30 15:59 3.9M
20260430T12Z_MSC_GDPS_CIN_Sfc_LatLon0.15_PT036H.grib2 2026-04-30 15:59 2.9M
20260430T12Z_MSC_GDPS_CloudWater_EAtm_LatLon0.15_PT036H.grib2 2026-04-30 15:59 532K
20260430T12Z_MSC_GDPS_ConvectivePrecip-Accum_Sfc_LatLon0.15_PT036H.grib2 2026-04-30 15:59 2.7M
20260430T12Z_MSC_GDPS_DewPointDepression_AGL-2m_LatLon0.15_PT036H.grib2 2026-04-30 15:59 762K
20260430T12Z_MSC_GDPS_DewPointDepression_IsbL-0010_LatLon0.15_PT036H.grib2 2026-04-30 15:59 59K
20260430T12Z_MSC_GDPS_DewPointDepression_IsbL-0020_LatLon0.15_PT036H.grib2 2026-04-30 15:59 64K
20260430T12Z_MSC_GDPS_DewPointDepression_IsbL-0030_LatLon0.15_PT036H.grib2 2026-04-30 15:59 73K
20260430T12Z_MSC_GDPS_DewPointDepression_IsbL-0050_LatLon0.15_PT036H.grib2 2026-04-30 15:59 375K
20260430T12Z_MSC_GDPS_DewPointDepression_IsbL-0100_LatLon0.15_PT036H.grib2 2026-04-30 15:59 417K
20260430T12Z_MSC_GDPS_DewPointDepression_IsbL-0150_LatLon0.15_PT036H.grib2 2026-04-30 15:59 464K
20260430T12Z_MSC_GDPS_DewPointDepression_IsbL-0175_LatLon0.15_PT036H.grib2 2026-04-30 15:59 569K
20260430T12Z_MSC_GDPS_DewPointDepression_IsbL-0200_LatLon0.15_PT036H.grib2 2026-04-30 15:59 688K
20260430T12Z_MSC_GDPS_DewPointDepression_IsbL-0225_LatLon0.15_PT036H.grib2 2026-04-30 15:59 787K
20260430T12Z_MSC_GDPS_DewPointDepression_IsbL-0250_LatLon0.15_PT036H.grib2 2026-04-30 15:59 873K
20260430T12Z_MSC_GDPS_DewPointDepression_IsbL-0275_LatLon0.15_PT036H.grib2 2026-04-30 15:59 888K
20260430T12Z_MSC_GDPS_DewPointDepression_IsbL-0300_LatLon0.15_PT036H.grib2 2026-04-30 15:59 925K
20260430T12Z_MSC_GDPS_DewPointDepression_IsbL-0350_LatLon0.15_PT036H.grib2 2026-04-30 15:59 952K
20260430T12Z_MSC_GDPS_DewPointDepression_IsbL-0400_LatLon0.15_PT036H.grib2 2026-04-30 15:59 1.0M
20260430T12Z_MSC_GDPS_DewPointDepression_IsbL-0450_LatLon0.15_PT036H.grib2 2026-04-30 15:59 1.0M
20260430T12Z_MSC_GDPS_DewPointDepression_IsbL-0500_LatLon0.15_PT036H.grib2 2026-04-30 15:59 1.0M
20260430T12Z_MSC_GDPS_DewPointDepression_IsbL-0550_LatLon0.15_PT036H.grib2 2026-04-30 15:59 1.0M
20260430T12Z_MSC_GDPS_DewPointDepression_IsbL-0600_LatLon0.15_PT036H.grib2 2026-04-30 15:59 1.0M
20260430T12Z_MSC_GDPS_DewPointDepression_IsbL-0650_LatLon0.15_PT036H.grib2 2026-04-30 15:59 1.1M
20260430T12Z_MSC_GDPS_DewPointDepression_IsbL-0700_LatLon0.15_PT036H.grib2 2026-04-30 15:59 1.1M
20260430T12Z_MSC_GDPS_DewPointDepression_IsbL-0750_LatLon0.15_PT036H.grib2 2026-04-30 15:59 1.1M
20260430T12Z_MSC_GDPS_DewPointDepression_IsbL-0800_LatLon0.15_PT036H.grib2 2026-04-30 15:59 1.2M
20260430T12Z_MSC_GDPS_DewPointDepression_IsbL-0850_LatLon0.15_PT036H.grib2 2026-04-30 15:59 1.2M
20260430T12Z_MSC_GDPS_DewPointDepression_IsbL-0875_LatLon0.15_PT036H.grib2 2026-04-30 15:59 1.1M
20260430T12Z_MSC_GDPS_DewPointDepression_IsbL-0900_LatLon0.15_PT036H.grib2 2026-04-30 15:59 1.0M
20260430T12Z_MSC_GDPS_DewPointDepression_IsbL-0925_LatLon0.15_PT036H.grib2 2026-04-30 15:59 1.0M
20260430T12Z_MSC_GDPS_DewPointDepression_IsbL-0950_LatLon0.15_PT036H.grib2 2026-04-30 15:59 1.0M
20260430T12Z_MSC_GDPS_DewPointDepression_IsbL-0970_LatLon0.15_PT036H.grib2 2026-04-30 15:59 1.0M
20260430T12Z_MSC_GDPS_DewPointDepression_IsbL-0985_LatLon0.15_PT036H.grib2 2026-04-30 15:59 1.0M
20260430T12Z_MSC_GDPS_DewPointDepression_IsbL-1000_LatLon0.15_PT036H.grib2 2026-04-30 15:59 1.0M
20260430T12Z_MSC_GDPS_DewPointDepression_IsbL-1015_LatLon0.15_PT036H.grib2 2026-04-30 15:59 912K
20260430T12Z_MSC_GDPS_DewPoint_AGL-2m_LatLon0.15_PT036H.grib2 2026-04-30 15:59 601K
20260430T12Z_MSC_GDPS_DownwardLongwaveRadiationFlux-Accum_Sfc_LatLon0.15_PT036H.grib2 2026-04-30 15:59 799K
20260430T12Z_MSC_GDPS_DownwardShortwaveRadiationFlux-Accum_NTAtm_LatLon0.15_PT036H.grib2 2026-04-30 15:59 302K
20260430T12Z_MSC_GDPS_DownwardShortwaveRadiationFlux-Accum_Sfc_LatLon0.15_PT036H.grib2 2026-04-30 15:59 947K
20260430T12Z_MSC_GDPS_FreezingRain-Accum12h_Sfc_LatLon0.15_PT036H.grib2 2026-04-30 15:59 108K
20260430T12Z_MSC_GDPS_FreezingRain-Accum1h_Sfc_LatLon0.15_PT036H.grib2 2026-04-30 15:59 45K
20260430T12Z_MSC_GDPS_FreezingRain-Accum24h_Sfc_LatLon0.15_PT036H.grib2 2026-04-30 15:59 157K
20260430T12Z_MSC_GDPS_FreezingRain-Accum3h_Sfc_LatLon0.15_PT036H.grib2 2026-04-30 15:59 49K
20260430T12Z_MSC_GDPS_FreezingRain-Accum6h_Sfc_LatLon0.15_PT036H.grib2 2026-04-30 15:59 78K
20260430T12Z_MSC_GDPS_FreezingRain-Accum_Sfc_LatLon0.15_PT036H.grib2 2026-04-30 15:59 242K
20260430T12Z_MSC_GDPS_GeopotentialHeight_IsbL-0001_LatLon0.15_PT036H.grib2 2026-04-30 15:59 417K
20260430T12Z_MSC_GDPS_GeopotentialHeight_IsbL-0005_LatLon0.15_PT036H.grib2 2026-04-30 15:59 484K
20260430T12Z_MSC_GDPS_GeopotentialHeight_IsbL-0010_LatLon0.15_PT036H.grib2 2026-04-30 15:59 473K
20260430T12Z_MSC_GDPS_GeopotentialHeight_IsbL-0020_LatLon0.15_PT036H.grib2 2026-04-30 15:59 411K
20260430T12Z_MSC_GDPS_GeopotentialHeight_IsbL-0030_LatLon0.15_PT036H.grib2 2026-04-30 15:59 566K
20260430T12Z_MSC_GDPS_GeopotentialHeight_IsbL-0050_LatLon0.15_PT036H.grib2 2026-04-30 15:59 569K
20260430T12Z_MSC_GDPS_GeopotentialHeight_IsbL-0100_LatLon0.15_PT036H.grib2 2026-04-30 15:59 607K
20260430T12Z_MSC_GDPS_GeopotentialHeight_IsbL-0150_LatLon0.15_PT036H.grib2 2026-04-30 15:59 629K
20260430T12Z_MSC_GDPS_GeopotentialHeight_IsbL-0175_LatLon0.15_PT036H.grib2 2026-04-30 15:59 631K
20260430T12Z_MSC_GDPS_GeopotentialHeight_IsbL-0200_LatLon0.15_PT036H.grib2 2026-04-30 15:59 636K
20260430T12Z_MSC_GDPS_GeopotentialHeight_IsbL-0225_LatLon0.15_PT036H.grib2 2026-04-30 15:59 633K
20260430T12Z_MSC_GDPS_GeopotentialHeight_IsbL-0250_LatLon0.15_PT036H.grib2 2026-04-30 15:59 638K
20260430T12Z_MSC_GDPS_GeopotentialHeight_IsbL-0275_LatLon0.15_PT036H.grib2 2026-04-30 15:59 639K
20260430T12Z_MSC_GDPS_GeopotentialHeight_IsbL-0300_LatLon0.15_PT036H.grib2 2026-04-30 15:59 632K
20260430T12Z_MSC_GDPS_GeopotentialHeight_IsbL-0350_LatLon0.15_PT036H.grib2 2026-04-30 15:59 627K
20260430T12Z_MSC_GDPS_GeopotentialHeight_IsbL-0400_LatLon0.15_PT036H.grib2 2026-04-30 15:59 621K
20260430T12Z_MSC_GDPS_GeopotentialHeight_IsbL-0450_LatLon0.15_PT036H.grib2 2026-04-30 15:59 612K
20260430T12Z_MSC_GDPS_GeopotentialHeight_IsbL-0500_LatLon0.15_PT036H.grib2 2026-04-30 15:59 532K
20260430T12Z_MSC_GDPS_GeopotentialHeight_IsbL-0550_LatLon0.15_PT036H.grib2 2026-04-30 15:59 527K
20260430T12Z_MSC_GDPS_GeopotentialHeight_IsbL-0600_LatLon0.15_PT036H.grib2 2026-04-30 15:59 522K
20260430T12Z_MSC_GDPS_GeopotentialHeight_IsbL-0650_LatLon0.15_PT036H.grib2 2026-04-30 15:59 687K
20260430T12Z_MSC_GDPS_GeopotentialHeight_IsbL-0700_LatLon0.15_PT036H.grib2 2026-04-30 15:59 687K
20260430T12Z_MSC_GDPS_GeopotentialHeight_IsbL-0750_LatLon0.15_PT036H.grib2 2026-04-30 15:59 691K
20260430T12Z_MSC_GDPS_GeopotentialHeight_IsbL-0800_LatLon0.15_PT036H.grib2 2026-04-30 15:59 700K
20260430T12Z_MSC_GDPS_GeopotentialHeight_IsbL-0850_LatLon0.15_PT036H.grib2 2026-04-30 15:59 707K
20260430T12Z_MSC_GDPS_GeopotentialHeight_IsbL-0875_LatLon0.15_PT036H.grib2 2026-04-30 15:59 716K
20260430T12Z_MSC_GDPS_GeopotentialHeight_IsbL-0900_LatLon0.15_PT036H.grib2 2026-04-30 15:59 722K
20260430T12Z_MSC_GDPS_GeopotentialHeight_IsbL-0925_LatLon0.15_PT036H.grib2 2026-04-30 15:59 731K
20260430T12Z_MSC_GDPS_GeopotentialHeight_IsbL-0950_LatLon0.15_PT036H.grib2 2026-04-30 15:59 738K
20260430T12Z_MSC_GDPS_GeopotentialHeight_IsbL-0970_LatLon0.15_PT036H.grib2 2026-04-30 15:59 749K
20260430T12Z_MSC_GDPS_GeopotentialHeight_IsbL-0985_LatLon0.15_PT036H.grib2 2026-04-30 15:59 764K
20260430T12Z_MSC_GDPS_GeopotentialHeight_IsbL-1000_LatLon0.15_PT036H.grib2 2026-04-30 15:59 786K
20260430T12Z_MSC_GDPS_GeopotentialHeight_IsbL-1015_LatLon0.15_PT036H.grib2 2026-04-30 15:59 808K
20260430T12Z_MSC_GDPS_Humidex_Sfc_LatLon0.15_PT036H.grib2 2026-04-30 15:59 5.3M
20260430T12Z_MSC_GDPS_IcePellets-Accum12h_Sfc_LatLon0.15_PT036H.grib2 2026-04-30 15:59 28K
20260430T12Z_MSC_GDPS_IcePellets-Accum1h_Sfc_LatLon0.15_PT036H.grib2 2026-04-30 15:59 8.0K
20260430T12Z_MSC_GDPS_IcePellets-Accum24h_Sfc_LatLon0.15_PT036H.grib2 2026-04-30 15:59 42K
20260430T12Z_MSC_GDPS_IcePellets-Accum3h_Sfc_LatLon0.15_PT036H.grib2 2026-04-30 15:59 11K
20260430T12Z_MSC_GDPS_IcePellets-Accum6h_Sfc_LatLon0.15_PT036H.grib2 2026-04-30 15:59 14K
20260430T12Z_MSC_GDPS_IcePellets-Accum_Sfc_LatLon0.15_PT036H.grib2 2026-04-30 15:59 53K
20260430T12Z_MSC_GDPS_KIndex_Sfc_LatLon0.15_PT036H.grib2 2026-04-30 15:59 6.5M
20260430T12Z_MSC_GDPS_LatentHeatNetFlux_Sfc_LatLon0.15_PT036H.grib2 2026-04-30 15:59 661K
20260430T12Z_MSC_GDPS_LiftedIndex-MU-VT_IsbL-0500_LatLon0.15_PT036H.grib2 2026-04-30 15:59 5.3M
20260430T12Z_MSC_GDPS_NetLongwaveRadiationFlux-Accum_Sfc_LatLon0.15_PT036H.grib2 2026-04-30 15:59 1.0M
20260430T12Z_MSC_GDPS_NetShortwaveRadiationFlux-Accum_Sfc_LatLon0.15_PT036H.grib2 2026-04-30 15:59 922K
20260430T12Z_MSC_GDPS_O3MixingRatio_Sfc_LatLon0.15_PT036H.grib2 2026-04-30 16:44 2.3M
20260430T12Z_MSC_GDPS_O3_EAtm_LatLon0.15_PT036H.grib2 2026-04-30 16:44 2.5M
20260430T12Z_MSC_GDPS_PlanetaryBoundaryLayerHeight_Sfc_LatLon0.15_PT036H.grib2 2026-04-30 15:59 2.4M
20260430T12Z_MSC_GDPS_Precip-Accum12h_Sfc_LatLon0.15_PT036H.grib2 2026-04-30 15:59 4.0M
20260430T12Z_MSC_GDPS_Precip-Accum1h_Sfc_LatLon0.15_PT036H.grib2 2026-04-30 15:59 3.4M
20260430T12Z_MSC_GDPS_Precip-Accum24h_Sfc_LatLon0.15_PT036H.grib2 2026-04-30 15:59 4.5M
20260430T12Z_MSC_GDPS_Precip-Accum3h_Sfc_LatLon0.15_PT036H.grib2 2026-04-30 15:59 3.4M
20260430T12Z_MSC_GDPS_Precip-Accum6h_Sfc_LatLon0.15_PT036H.grib2 2026-04-30 15:59 3.8M
20260430T12Z_MSC_GDPS_Precip-Accum_Sfc_LatLon0.15_PT036H.grib2 2026-04-30 15:59 4.7M
20260430T12Z_MSC_GDPS_PrecipRate_Sfc_LatLon0.15_PT036H.grib2 2026-04-30 15:59 3.1M
20260430T12Z_MSC_GDPS_PrecipType-Instant_Sfc_LatLon0.15_PT036H.grib2 2026-04-30 15:59 1.5M
20260430T12Z_MSC_GDPS_Pressure_MSL_LatLon0.15_PT036H.grib2 2026-04-30 15:59 822K
20260430T12Z_MSC_GDPS_Pressure_PVU-1.5_LatLon0.15_PT036H.grib2 2026-04-30 15:59 5.8M
20260430T12Z_MSC_GDPS_Pressure_PVU-1_LatLon0.15_PT036H.grib2 2026-04-30 15:59 6.0M
20260430T12Z_MSC_GDPS_Pressure_PVU-2_LatLon0.15_PT036H.grib2 2026-04-30 15:59 5.6M
20260430T12Z_MSC_GDPS_Pressure_Sfc_LatLon0.15_PT036H.grib2 2026-04-30 15:59 1.1M
20260430T12Z_MSC_GDPS_RadiativeTemp_Sfc_LatLon0.15_PT036H.grib2 2026-04-30 15:59 654K
20260430T12Z_MSC_GDPS_Rain-Accum12h_Sfc_LatLon0.15_PT036H.grib2 2026-04-30 15:59 2.6M
20260430T12Z_MSC_GDPS_Rain-Accum1h_Sfc_LatLon0.15_PT036H.grib2 2026-04-30 15:59 1.7M
20260430T12Z_MSC_GDPS_Rain-Accum24h_Sfc_LatLon0.15_PT036H.grib2 2026-04-30 15:59 3.1M
20260430T12Z_MSC_GDPS_Rain-Accum3h_Sfc_LatLon0.15_PT036H.grib2 2026-04-30 15:59 1.8M
20260430T12Z_MSC_GDPS_Rain-Accum6h_Sfc_LatLon0.15_PT036H.grib2 2026-04-30 15:59 2.4M
20260430T12Z_MSC_GDPS_Rain-Accum_Sfc_LatLon0.15_PT036H.grib2 2026-04-30 15:59 3.5M
20260430T12Z_MSC_GDPS_RelativeHumidity_AGL-2m_LatLon0.15_PT036H.grib2 2026-04-30 15:59 1.0M
20260430T12Z_MSC_GDPS_RelativeHumidity_IsbL-0010_LatLon0.15_PT036H.grib2 2026-04-30 15:59 200K
20260430T12Z_MSC_GDPS_RelativeHumidity_IsbL-0020_LatLon0.15_PT036H.grib2 2026-04-30 15:59 276K
20260430T12Z_MSC_GDPS_RelativeHumidity_IsbL-0030_LatLon0.15_PT036H.grib2 2026-04-30 15:59 268K
20260430T12Z_MSC_GDPS_RelativeHumidity_IsbL-0050_LatLon0.15_PT036H.grib2 2026-04-30 15:59 333K
20260430T12Z_MSC_GDPS_RelativeHumidity_IsbL-0100_LatLon0.15_PT036H.grib2 2026-04-30 15:59 518K
20260430T12Z_MSC_GDPS_RelativeHumidity_IsbL-0150_LatLon0.15_PT036H.grib2 2026-04-30 15:59 660K
20260430T12Z_MSC_GDPS_RelativeHumidity_IsbL-0175_LatLon0.15_PT036H.grib2 2026-04-30 15:59 775K
20260430T12Z_MSC_GDPS_RelativeHumidity_IsbL-0200_LatLon0.15_PT036H.grib2 2026-04-30 15:59 700K
20260430T12Z_MSC_GDPS_RelativeHumidity_IsbL-0225_LatLon0.15_PT036H.grib2 2026-04-30 15:59 792K
20260430T12Z_MSC_GDPS_RelativeHumidity_IsbL-0250_LatLon0.15_PT036H.grib2 2026-04-30 15:59 871K
20260430T12Z_MSC_GDPS_RelativeHumidity_IsbL-0275_LatLon0.15_PT036H.grib2 2026-04-30 15:59 890K
20260430T12Z_MSC_GDPS_RelativeHumidity_IsbL-0300_LatLon0.15_PT036H.grib2 2026-04-30 15:59 930K
20260430T12Z_MSC_GDPS_RelativeHumidity_IsbL-0350_LatLon0.15_PT036H.grib2 2026-04-30 15:59 948K
20260430T12Z_MSC_GDPS_RelativeHumidity_IsbL-0400_LatLon0.15_PT036H.grib2 2026-04-30 15:59 969K
20260430T12Z_MSC_GDPS_RelativeHumidity_IsbL-0450_LatLon0.15_PT036H.grib2 2026-04-30 15:59 1.0M
20260430T12Z_MSC_GDPS_RelativeHumidity_IsbL-0500_LatLon0.15_PT036H.grib2 2026-04-30 15:59 1.0M
20260430T12Z_MSC_GDPS_RelativeHumidity_IsbL-0550_LatLon0.15_PT036H.grib2 2026-04-30 15:59 1.1M
20260430T12Z_MSC_GDPS_RelativeHumidity_IsbL-0600_LatLon0.15_PT036H.grib2 2026-04-30 15:59 1.1M
20260430T12Z_MSC_GDPS_RelativeHumidity_IsbL-0650_LatLon0.15_PT036H.grib2 2026-04-30 15:59 1.1M
20260430T12Z_MSC_GDPS_RelativeHumidity_IsbL-0700_LatLon0.15_PT036H.grib2 2026-04-30 15:59 1.1M
20260430T12Z_MSC_GDPS_RelativeHumidity_IsbL-0750_LatLon0.15_PT036H.grib2 2026-04-30 15:59 1.2M
20260430T12Z_MSC_GDPS_RelativeHumidity_IsbL-0800_LatLon0.15_PT036H.grib2 2026-04-30 15:59 1.3M
20260430T12Z_MSC_GDPS_RelativeHumidity_IsbL-0850_LatLon0.15_PT036H.grib2 2026-04-30 15:59 1.3M
20260430T12Z_MSC_GDPS_RelativeHumidity_IsbL-0875_LatLon0.15_PT036H.grib2 2026-04-30 15:59 1.3M
20260430T12Z_MSC_GDPS_RelativeHumidity_IsbL-0900_LatLon0.15_PT036H.grib2 2026-04-30 15:59 1.2M
20260430T12Z_MSC_GDPS_RelativeHumidity_IsbL-0925_LatLon0.15_PT036H.grib2 2026-04-30 15:59 1.2M
20260430T12Z_MSC_GDPS_RelativeHumidity_IsbL-0950_LatLon0.15_PT036H.grib2 2026-04-30 15:59 1.2M
20260430T12Z_MSC_GDPS_RelativeHumidity_IsbL-0970_LatLon0.15_PT036H.grib2 2026-04-30 15:59 1.2M
20260430T12Z_MSC_GDPS_RelativeHumidity_IsbL-0985_LatLon0.15_PT036H.grib2 2026-04-30 15:59 1.2M
20260430T12Z_MSC_GDPS_RelativeHumidity_IsbL-1000_LatLon0.15_PT036H.grib2 2026-04-30 15:59 1.1M
20260430T12Z_MSC_GDPS_RelativeHumidity_IsbL-1015_LatLon0.15_PT036H.grib2 2026-04-30 15:59 1.0M
20260430T12Z_MSC_GDPS_RelativeVorticity_IsbL-0200_LatLon0.15_PT036H.grib2 2026-04-30 15:59 1.5M
20260430T12Z_MSC_GDPS_RelativeVorticity_IsbL-0250_LatLon0.15_PT036H.grib2 2026-04-30 15:59 1.6M
20260430T12Z_MSC_GDPS_RelativeVorticity_IsbL-0500_LatLon0.15_PT036H.grib2 2026-04-30 15:59 1.5M
20260430T12Z_MSC_GDPS_RelativeVorticity_IsbL-0700_LatLon0.15_PT036H.grib2 2026-04-30 15:59 1.6M
20260430T12Z_MSC_GDPS_RelativeVorticity_IsbL-0850_LatLon0.15_PT036H.grib2 2026-04-30 15:59 1.6M
20260430T12Z_MSC_GDPS_Runoff-Accum_Sfc_LatLon0.15_PT036H.grib2 2026-04-30 15:59 108K
20260430T12Z_MSC_GDPS_SensibleHeatNetFlux_Sfc_LatLon0.15_PT036H.grib2 2026-04-30 15:59 609K
20260430T12Z_MSC_GDPS_ShowalterIndex_IsbL-0500_LatLon0.15_PT036H.grib2 2026-04-30 15:59 6.2M
20260430T12Z_MSC_GDPS_Snow-Accum12h_Sfc_LatLon0.15_PT036H.grib2 2026-04-30 15:59 1.4M
20260430T12Z_MSC_GDPS_Snow-Accum1h_Sfc_LatLon0.15_PT036H.grib2 2026-04-30 15:59 1.1M
20260430T12Z_MSC_GDPS_Snow-Accum24h_Sfc_LatLon0.15_PT036H.grib2 2026-04-30 15:59 1.5M
20260430T12Z_MSC_GDPS_Snow-Accum3h_Sfc_LatLon0.15_PT036H.grib2 2026-04-30 15:59 958K
20260430T12Z_MSC_GDPS_Snow-Accum6h_Sfc_LatLon0.15_PT036H.grib2 2026-04-30 15:59 1.3M
20260430T12Z_MSC_GDPS_Snow-Accum_Sfc_LatLon0.15_PT036H.grib2 2026-04-30 15:59 1.9M
20260430T12Z_MSC_GDPS_SnowDensity_Sfc_LatLon0.15_PT036H.grib2 2026-04-30 15:59 260K
20260430T12Z_MSC_GDPS_SnowDepth_Sfc_LatLon0.15_PT036H.grib2 2026-04-30 15:59 1.7M
20260430T12Z_MSC_GDPS_SoilTemp_DBS-0to10cm_LatLon0.15_PT036H.grib2 2026-04-30 15:59 504K
20260430T12Z_MSC_GDPS_SoilTemp_Sfc_LatLon0.15_PT036H.grib2 2026-04-30 15:59 574K
20260430T12Z_MSC_GDPS_SoilVolumetricIceContent_Sfc_LatLon0.15_PT036H.grib2 2026-04-30 15:59 203K
20260430T12Z_MSC_GDPS_SoilVolumetricWaterContent_DBS-0to10cm_LatLon0.15_PT036H.grib2 2026-04-30 15:59 586K
20260430T12Z_MSC_GDPS_SoilVolumetricWaterContent_DBS-0to1cm_LatLon0.15_PT036H.grib2 2026-04-30 15:59 651K
20260430T12Z_MSC_GDPS_SpecificHumidity_AGL-120m_LatLon0.15_PT036H.grib2 2026-04-30 15:59 1.1M
20260430T12Z_MSC_GDPS_SpecificHumidity_AGL-2m_LatLon0.15_PT036H.grib2 2026-04-30 15:59 1.2M
20260430T12Z_MSC_GDPS_SpecificHumidity_AGL-40m_LatLon0.15_PT036H.grib2 2026-04-30 15:59 1.1M
20260430T12Z_MSC_GDPS_SpecificHumidity_AGL-80m_LatLon0.15_PT036H.grib2 2026-04-30 15:59 1.1M
20260430T12Z_MSC_GDPS_SpecificHumidity_IsbL-0001_LatLon0.15_PT036H.grib2 2026-04-30 15:59 1.3M
20260430T12Z_MSC_GDPS_SpecificHumidity_IsbL-0005_LatLon0.15_PT036H.grib2 2026-04-30 15:59 1.2M
20260430T12Z_MSC_GDPS_SpecificHumidity_IsbL-0010_LatLon0.15_PT036H.grib2 2026-04-30 15:59 1.3M
20260430T12Z_MSC_GDPS_SpecificHumidity_IsbL-0020_LatLon0.15_PT036H.grib2 2026-04-30 15:59 1.4M
20260430T12Z_MSC_GDPS_SpecificHumidity_IsbL-0030_LatLon0.15_PT036H.grib2 2026-04-30 15:59 1.4M
20260430T12Z_MSC_GDPS_SpecificHumidity_IsbL-0050_LatLon0.15_PT036H.grib2 2026-04-30 15:59 1.4M
20260430T12Z_MSC_GDPS_SpecificHumidity_IsbL-0100_LatLon0.15_PT036H.grib2 2026-04-30 15:59 1.4M
20260430T12Z_MSC_GDPS_SpecificHumidity_IsbL-0150_LatLon0.15_PT036H.grib2 2026-04-30 15:59 1.3M
20260430T12Z_MSC_GDPS_SpecificHumidity_IsbL-0175_LatLon0.15_PT036H.grib2 2026-04-30 15:59 1.2M
20260430T12Z_MSC_GDPS_SpecificHumidity_IsbL-0200_LatLon0.15_PT036H.grib2 2026-04-30 15:59 1.3M
20260430T12Z_MSC_GDPS_SpecificHumidity_IsbL-0225_LatLon0.15_PT036H.grib2 2026-04-30 15:59 1.3M
20260430T12Z_MSC_GDPS_SpecificHumidity_IsbL-0250_LatLon0.15_PT036H.grib2 2026-04-30 15:59 1.4M
20260430T12Z_MSC_GDPS_SpecificHumidity_IsbL-0275_LatLon0.15_PT036H.grib2 2026-04-30 15:59 1.3M
20260430T12Z_MSC_GDPS_SpecificHumidity_IsbL-0300_LatLon0.15_PT036H.grib2 2026-04-30 15:59 1.2M
20260430T12Z_MSC_GDPS_SpecificHumidity_IsbL-0350_LatLon0.15_PT036H.grib2 2026-04-30 15:59 1.5M
20260430T12Z_MSC_GDPS_SpecificHumidity_IsbL-0400_LatLon0.15_PT036H.grib2 2026-04-30 15:59 1.4M
20260430T12Z_MSC_GDPS_SpecificHumidity_IsbL-0450_LatLon0.15_PT036H.grib2 2026-04-30 15:59 1.6M
20260430T12Z_MSC_GDPS_SpecificHumidity_IsbL-0500_LatLon0.15_PT036H.grib2 2026-04-30 15:59 1.4M
20260430T12Z_MSC_GDPS_SpecificHumidity_IsbL-0550_LatLon0.15_PT036H.grib2 2026-04-30 15:59 1.6M
20260430T12Z_MSC_GDPS_SpecificHumidity_IsbL-0600_LatLon0.15_PT036H.grib2 2026-04-30 15:59 1.7M
20260430T12Z_MSC_GDPS_SpecificHumidity_IsbL-0650_LatLon0.15_PT036H.grib2 2026-04-30 15:59 1.5M
20260430T12Z_MSC_GDPS_SpecificHumidity_IsbL-0700_LatLon0.15_PT036H.grib2 2026-04-30 15:59 1.6M
20260430T12Z_MSC_GDPS_SpecificHumidity_IsbL-0750_LatLon0.15_PT036H.grib2 2026-04-30 15:59 1.7M
20260430T12Z_MSC_GDPS_SpecificHumidity_IsbL-0800_LatLon0.15_PT036H.grib2 2026-04-30 15:59 1.8M
20260430T12Z_MSC_GDPS_SpecificHumidity_IsbL-0850_LatLon0.15_PT036H.grib2 2026-04-30 15:59 1.9M
20260430T12Z_MSC_GDPS_SpecificHumidity_IsbL-0875_LatLon0.15_PT036H.grib2 2026-04-30 15:59 1.9M
20260430T12Z_MSC_GDPS_SpecificHumidity_IsbL-0900_LatLon0.15_PT036H.grib2 2026-04-30 15:59 1.9M
20260430T12Z_MSC_GDPS_SpecificHumidity_IsbL-0925_LatLon0.15_PT036H.grib2 2026-04-30 15:59 1.6M
20260430T12Z_MSC_GDPS_SpecificHumidity_IsbL-0950_LatLon0.15_PT036H.grib2 2026-04-30 15:59 1.5M
20260430T12Z_MSC_GDPS_SpecificHumidity_IsbL-0970_LatLon0.15_PT036H.grib2 2026-04-30 15:59 1.5M
20260430T12Z_MSC_GDPS_SpecificHumidity_IsbL-0985_LatLon0.15_PT036H.grib2 2026-04-30 15:59 1.5M
20260430T12Z_MSC_GDPS_SpecificHumidity_IsbL-1000_LatLon0.15_PT036H.grib2 2026-04-30 15:59 1.5M
20260430T12Z_MSC_GDPS_SpecificHumidity_IsbL-1015_LatLon0.15_PT036H.grib2 2026-04-30 15:59 1.4M
20260430T12Z_MSC_GDPS_SpecificHumidity_Sfc_LatLon0.15_PT036H.grib2 2026-04-30 15:59 630K
20260430T12Z_MSC_GDPS_Thickness_IsbL-0850to0700_LatLon0.15_PT036H.grib2 2026-04-30 15:59 464K
20260430T12Z_MSC_GDPS_Thickness_IsbL-1000to0500_LatLon0.15_PT036H.grib2 2026-04-30 15:59 370K
20260430T12Z_MSC_GDPS_Thickness_IsbL-1000to0850_LatLon0.15_PT036H.grib2 2026-04-30 15:59 486K
20260430T12Z_MSC_GDPS_TotalCloudCover_Sfc_LatLon0.15_PT036H.grib2 2026-04-30 15:59 823K
20260430T12Z_MSC_GDPS_TotalTotalsIndex_Sfc_LatLon0.15_PT036H.grib2 2026-04-30 15:59 6.2M
20260430T12Z_MSC_GDPS_UVIndex-ClearSky_Sfc_LatLon0.15_PT036H.grib2 2026-04-30 16:44 1.0M
20260430T12Z_MSC_GDPS_UVIndex_Sfc_LatLon0.15_PT036H.grib2 2026-04-30 16:44 1.5M
20260430T12Z_MSC_GDPS_UpwardLongwaveRadiationFlux_NTAtm_LatLon0.15_PT036H.grib2 2026-04-30 15:59 1.1M
20260430T12Z_MSC_GDPS_VerticalVelocity_IsbL-0200_LatLon0.15_PT036H.grib2 2026-04-30 15:59 1.1M
20260430T12Z_MSC_GDPS_VerticalVelocity_IsbL-0250_LatLon0.15_PT036H.grib2 2026-04-30 15:59 1.0M
20260430T12Z_MSC_GDPS_VerticalVelocity_IsbL-0500_LatLon0.15_PT036H.grib2 2026-04-30 15:59 1.0M
20260430T12Z_MSC_GDPS_VerticalVelocity_IsbL-0600_LatLon0.15_PT036H.grib2 2026-04-30 15:59 1.1M
20260430T12Z_MSC_GDPS_VerticalVelocity_IsbL-0700_LatLon0.15_PT036H.grib2 2026-04-30 15:59 1.2M
20260430T12Z_MSC_GDPS_VerticalVelocity_IsbL-0850_LatLon0.15_PT036H.grib2 2026-04-30 15:59 1.3M
20260430T12Z_MSC_GDPS_WindChill_Sfc_LatLon0.15_PT036H.grib2 2026-04-30 15:59 5.3M
20260430T12Z_MSC_GDPS_WindDir_AGL-10m_LatLon0.15_PT036H.grib2 2026-04-30 15:59 1.3M
20260430T12Z_MSC_GDPS_WindDir_AGL-120m_LatLon0.15_PT036H.grib2 2026-04-30 15:59 1.3M
20260430T12Z_MSC_GDPS_WindDir_AGL-40m_LatLon0.15_PT036H.grib2 2026-04-30 15:59 1.4M
20260430T12Z_MSC_GDPS_WindDir_AGL-80m_LatLon0.15_PT036H.grib2 2026-04-30 15:59 1.4M
20260430T12Z_MSC_GDPS_WindDir_IsbL-0001_LatLon0.15_PT036H.grib2 2026-04-30 15:59 683K
20260430T12Z_MSC_GDPS_WindDir_IsbL-0005_LatLon0.15_PT036H.grib2 2026-04-30 15:59 796K
20260430T12Z_MSC_GDPS_WindDir_IsbL-0010_LatLon0.15_PT036H.grib2 2026-04-30 15:59 838K
20260430T12Z_MSC_GDPS_WindDir_IsbL-0020_LatLon0.15_PT036H.grib2 2026-04-30 15:59 959K
20260430T12Z_MSC_GDPS_WindDir_IsbL-0030_LatLon0.15_PT036H.grib2 2026-04-30 15:59 942K
20260430T12Z_MSC_GDPS_WindDir_IsbL-0050_LatLon0.15_PT036H.grib2 2026-04-30 15:59 951K
20260430T12Z_MSC_GDPS_WindDir_IsbL-0100_LatLon0.15_PT036H.grib2 2026-04-30 15:59 1.0M
20260430T12Z_MSC_GDPS_WindDir_IsbL-0150_LatLon0.15_PT036H.grib2 2026-04-30 15:59 1.0M
20260430T12Z_MSC_GDPS_WindDir_IsbL-0175_LatLon0.15_PT036H.grib2 2026-04-30 15:59 1.1M
20260430T12Z_MSC_GDPS_WindDir_IsbL-0200_LatLon0.15_PT036H.grib2 2026-04-30 15:59 1.1M
20260430T12Z_MSC_GDPS_WindDir_IsbL-0225_LatLon0.15_PT036H.grib2 2026-04-30 15:59 1.1M
20260430T12Z_MSC_GDPS_WindDir_IsbL-0250_LatLon0.15_PT036H.grib2 2026-04-30 15:59 1.1M
20260430T12Z_MSC_GDPS_WindDir_IsbL-0275_LatLon0.15_PT036H.grib2 2026-04-30 15:59 1.2M
20260430T12Z_MSC_GDPS_WindDir_IsbL-0300_LatLon0.15_PT036H.grib2 2026-04-30 15:59 1.2M
20260430T12Z_MSC_GDPS_WindDir_IsbL-0350_LatLon0.15_PT036H.grib2 2026-04-30 15:59 1.2M
20260430T12Z_MSC_GDPS_WindDir_IsbL-0400_LatLon0.15_PT036H.grib2 2026-04-30 15:59 1.3M
20260430T12Z_MSC_GDPS_WindDir_IsbL-0450_LatLon0.15_PT036H.grib2 2026-04-30 15:59 1.3M
20260430T12Z_MSC_GDPS_WindDir_IsbL-0500_LatLon0.15_PT036H.grib2 2026-04-30 15:59 1.3M
20260430T12Z_MSC_GDPS_WindDir_IsbL-0550_LatLon0.15_PT036H.grib2 2026-04-30 15:59 1.4M
20260430T12Z_MSC_GDPS_WindDir_IsbL-0600_LatLon0.15_PT036H.grib2 2026-04-30 15:59 1.4M
20260430T12Z_MSC_GDPS_WindDir_IsbL-0650_LatLon0.15_PT036H.grib2 2026-04-30 15:59 1.5M
20260430T12Z_MSC_GDPS_WindDir_IsbL-0700_LatLon0.15_PT036H.grib2 2026-04-30 15:59 1.6M
20260430T12Z_MSC_GDPS_WindDir_IsbL-0750_LatLon0.15_PT036H.grib2 2026-04-30 15:59 1.7M
20260430T12Z_MSC_GDPS_WindDir_IsbL-0800_LatLon0.15_PT036H.grib2 2026-04-30 15:59 1.8M
20260430T12Z_MSC_GDPS_WindDir_IsbL-0850_LatLon0.15_PT036H.grib2 2026-04-30 15:59 1.9M
20260430T12Z_MSC_GDPS_WindDir_IsbL-0875_LatLon0.15_PT036H.grib2 2026-04-30 15:59 1.9M
20260430T12Z_MSC_GDPS_WindDir_IsbL-0900_LatLon0.15_PT036H.grib2 2026-04-30 15:59 2.0M
20260430T12Z_MSC_GDPS_WindDir_IsbL-0925_LatLon0.15_PT036H.grib2 2026-04-30 15:59 2.0M
20260430T12Z_MSC_GDPS_WindDir_IsbL-0950_LatLon0.15_PT036H.grib2 2026-04-30 15:59 2.0M
20260430T12Z_MSC_GDPS_WindDir_IsbL-0970_LatLon0.15_PT036H.grib2 2026-04-30 15:59 2.0M
20260430T12Z_MSC_GDPS_WindDir_IsbL-0985_LatLon0.15_PT036H.grib2 2026-04-30 15:59 2.0M
20260430T12Z_MSC_GDPS_WindDir_IsbL-1000_LatLon0.15_PT036H.grib2 2026-04-30 15:59 2.1M
20260430T12Z_MSC_GDPS_WindDir_IsbL-1015_LatLon0.15_PT036H.grib2 2026-04-30 15:59 2.0M
20260430T12Z_MSC_GDPS_WindGust-Max_AGL-10m_LatLon0.15_PT036H.grib2 2026-04-30 15:59 2.2M
20260430T12Z_MSC_GDPS_WindGust-Min_AGL-10m_LatLon0.15_PT036H.grib2 2026-04-30 15:59 2.2M
20260430T12Z_MSC_GDPS_WindGust_AGL-10m_LatLon0.15_PT036H.grib2 2026-04-30 15:59 2.1M
20260430T12Z_MSC_GDPS_WindSpeed_AGL-10m_LatLon0.15_PT036H.grib2 2026-04-30 15:59 1.1M
20260430T12Z_MSC_GDPS_WindSpeed_AGL-120m_LatLon0.15_PT036H.grib2 2026-04-30 15:59 1.3M
20260430T12Z_MSC_GDPS_WindSpeed_AGL-40m_LatLon0.15_PT036H.grib2 2026-04-30 15:59 1.2M
20260430T12Z_MSC_GDPS_WindSpeed_AGL-80m_LatLon0.15_PT036H.grib2 2026-04-30 15:59 1.3M
20260430T12Z_MSC_GDPS_WindSpeed_IsbL-0001_LatLon0.15_PT036H.grib2 2026-04-30 15:59 639K
20260430T12Z_MSC_GDPS_WindSpeed_IsbL-0005_LatLon0.15_PT036H.grib2 2026-04-30 15:59 616K
20260430T12Z_MSC_GDPS_WindSpeed_IsbL-0010_LatLon0.15_PT036H.grib2 2026-04-30 15:59 630K
20260430T12Z_MSC_GDPS_WindSpeed_IsbL-0020_LatLon0.15_PT036H.grib2 2026-04-30 15:59 863K
20260430T12Z_MSC_GDPS_WindSpeed_IsbL-0030_LatLon0.15_PT036H.grib2 2026-04-30 15:59 868K
20260430T12Z_MSC_GDPS_WindSpeed_IsbL-0050_LatLon0.15_PT036H.grib2 2026-04-30 15:59 909K
20260430T12Z_MSC_GDPS_WindSpeed_IsbL-0100_LatLon0.15_PT036H.grib2 2026-04-30 15:59 1.1M
20260430T12Z_MSC_GDPS_WindSpeed_IsbL-0150_LatLon0.15_PT036H.grib2 2026-04-30 15:59 944K
20260430T12Z_MSC_GDPS_WindSpeed_IsbL-0175_LatLon0.15_PT036H.grib2 2026-04-30 15:59 1.0M
20260430T12Z_MSC_GDPS_WindSpeed_IsbL-0200_LatLon0.15_PT036H.grib2 2026-04-30 15:59 1.1M
20260430T12Z_MSC_GDPS_WindSpeed_IsbL-0225_LatLon0.15_PT036H.grib2 2026-04-30 15:59 1.1M
20260430T12Z_MSC_GDPS_WindSpeed_IsbL-0250_LatLon0.15_PT036H.grib2 2026-04-30 15:59 1.1M
20260430T12Z_MSC_GDPS_WindSpeed_IsbL-0275_LatLon0.15_PT036H.grib2 2026-04-30 15:59 1.1M
20260430T12Z_MSC_GDPS_WindSpeed_IsbL-0300_LatLon0.15_PT036H.grib2 2026-04-30 15:59 1.1M
20260430T12Z_MSC_GDPS_WindSpeed_IsbL-0350_LatLon0.15_PT036H.grib2 2026-04-30 15:59 1.1M
20260430T12Z_MSC_GDPS_WindSpeed_IsbL-0400_LatLon0.15_PT036H.grib2 2026-04-30 15:59 1.1M
20260430T12Z_MSC_GDPS_WindSpeed_IsbL-0450_LatLon0.15_PT036H.grib2 2026-04-30 15:59 1.1M
20260430T12Z_MSC_GDPS_WindSpeed_IsbL-0500_LatLon0.15_PT036H.grib2 2026-04-30 15:59 1.1M
20260430T12Z_MSC_GDPS_WindSpeed_IsbL-0550_LatLon0.15_PT036H.grib2 2026-04-30 15:59 1.1M
20260430T12Z_MSC_GDPS_WindSpeed_IsbL-0600_LatLon0.15_PT036H.grib2 2026-04-30 15:59 1.4M
20260430T12Z_MSC_GDPS_WindSpeed_IsbL-0650_LatLon0.15_PT036H.grib2 2026-04-30 15:59 1.4M
20260430T12Z_MSC_GDPS_WindSpeed_IsbL-0700_LatLon0.15_PT036H.grib2 2026-04-30 15:59 1.5M
20260430T12Z_MSC_GDPS_WindSpeed_IsbL-0750_LatLon0.15_PT036H.grib2 2026-04-30 15:59 1.6M
20260430T12Z_MSC_GDPS_WindSpeed_IsbL-0800_LatLon0.15_PT036H.grib2 2026-04-30 15:59 1.6M
20260430T12Z_MSC_GDPS_WindSpeed_IsbL-0850_LatLon0.15_PT036H.grib2 2026-04-30 15:59 1.7M
20260430T12Z_MSC_GDPS_WindSpeed_IsbL-0875_LatLon0.15_PT036H.grib2 2026-04-30 15:59 1.8M
20260430T12Z_MSC_GDPS_WindSpeed_IsbL-0900_LatLon0.15_PT036H.grib2 2026-04-30 15:59 1.8M
20260430T12Z_MSC_GDPS_WindSpeed_IsbL-0925_LatLon0.15_PT036H.grib2 2026-04-30 15:59 1.8M
20260430T12Z_MSC_GDPS_WindSpeed_IsbL-0950_LatLon0.15_PT036H.grib2 2026-04-30 15:59 1.9M
20260430T12Z_MSC_GDPS_WindSpeed_IsbL-0970_LatLon0.15_PT036H.grib2 2026-04-30 15:59 1.9M
20260430T12Z_MSC_GDPS_WindSpeed_IsbL-0985_LatLon0.15_PT036H.grib2 2026-04-30 15:59 1.9M
20260430T12Z_MSC_GDPS_WindSpeed_IsbL-1000_LatLon0.15_PT036H.grib2 2026-04-30 15:59 1.8M
20260430T12Z_MSC_GDPS_WindSpeed_IsbL-1015_LatLon0.15_PT036H.grib2 2026-04-30 15:59 1.8M
20260430T12Z_MSC_GDPS_WindU_AGL-10m_LatLon0.15_PT036H.grib2 2026-04-30 15:59 1.3M
20260430T12Z_MSC_GDPS_WindU_AGL-120m_LatLon0.15_PT036H.grib2 2026-04-30 15:59 1.0M
20260430T12Z_MSC_GDPS_WindU_AGL-40m_LatLon0.15_PT036H.grib2 2026-04-30 15:59 1.0M
20260430T12Z_MSC_GDPS_WindU_AGL-80m_LatLon0.15_PT036H.grib2 2026-04-30 15:59 1.0M
20260430T12Z_MSC_GDPS_WindU_IsbL-0001_LatLon0.15_PT036H.grib2 2026-04-30 15:59 499K
20260430T12Z_MSC_GDPS_WindU_IsbL-0005_LatLon0.15_PT036H.grib2 2026-04-30 15:59 695K
20260430T12Z_MSC_GDPS_WindU_IsbL-0010_LatLon0.15_PT036H.grib2 2026-04-30 15:59 704K
20260430T12Z_MSC_GDPS_WindU_IsbL-0020_LatLon0.15_PT036H.grib2 2026-04-30 15:59 735K
20260430T12Z_MSC_GDPS_WindU_IsbL-0030_LatLon0.15_PT036H.grib2 2026-04-30 15:59 742K
20260430T12Z_MSC_GDPS_WindU_IsbL-0050_LatLon0.15_PT036H.grib2 2026-04-30 15:59 771K
20260430T12Z_MSC_GDPS_WindU_IsbL-0100_LatLon0.15_PT036H.grib2 2026-04-30 15:59 925K
20260430T12Z_MSC_GDPS_WindU_IsbL-0150_LatLon0.15_PT036H.grib2 2026-04-30 15:59 1.0M
20260430T12Z_MSC_GDPS_WindU_IsbL-0175_LatLon0.15_PT036H.grib2 2026-04-30 15:59 1.0M
20260430T12Z_MSC_GDPS_WindU_IsbL-0200_LatLon0.15_PT036H.grib2 2026-04-30 15:59 846K
20260430T12Z_MSC_GDPS_WindU_IsbL-0225_LatLon0.15_PT036H.grib2 2026-04-30 15:59 856K
20260430T12Z_MSC_GDPS_WindU_IsbL-0250_LatLon0.15_PT036H.grib2 2026-04-30 15:59 855K
20260430T12Z_MSC_GDPS_WindU_IsbL-0275_LatLon0.15_PT036H.grib2 2026-04-30 15:59 882K
20260430T12Z_MSC_GDPS_WindU_IsbL-0300_LatLon0.15_PT036H.grib2 2026-04-30 15:59 872K
20260430T12Z_MSC_GDPS_WindU_IsbL-0350_LatLon0.15_PT036H.grib2 2026-04-30 15:59 1.1M
20260430T12Z_MSC_GDPS_WindU_IsbL-0400_LatLon0.15_PT036H.grib2 2026-04-30 15:59 1.1M
20260430T12Z_MSC_GDPS_WindU_IsbL-0450_LatLon0.15_PT036H.grib2 2026-04-30 15:59 1.1M
20260430T12Z_MSC_GDPS_WindU_IsbL-0500_LatLon0.15_PT036H.grib2 2026-04-30 15:59 1.1M
20260430T12Z_MSC_GDPS_WindU_IsbL-0550_LatLon0.15_PT036H.grib2 2026-04-30 15:59 1.1M
20260430T12Z_MSC_GDPS_WindU_IsbL-0600_LatLon0.15_PT036H.grib2 2026-04-30 15:59 1.1M
20260430T12Z_MSC_GDPS_WindU_IsbL-0650_LatLon0.15_PT036H.grib2 2026-04-30 15:59 1.2M
20260430T12Z_MSC_GDPS_WindU_IsbL-0700_LatLon0.15_PT036H.grib2 2026-04-30 15:59 1.2M
20260430T12Z_MSC_GDPS_WindU_IsbL-0750_LatLon0.15_PT036H.grib2 2026-04-30 15:59 1.3M
20260430T12Z_MSC_GDPS_WindU_IsbL-0800_LatLon0.15_PT036H.grib2 2026-04-30 15:59 1.3M
20260430T12Z_MSC_GDPS_WindU_IsbL-0850_LatLon0.15_PT036H.grib2 2026-04-30 15:59 1.4M
20260430T12Z_MSC_GDPS_WindU_IsbL-0875_LatLon0.15_PT036H.grib2 2026-04-30 15:59 1.5M
20260430T12Z_MSC_GDPS_WindU_IsbL-0900_LatLon0.15_PT036H.grib2 2026-04-30 15:59 1.5M
20260430T12Z_MSC_GDPS_WindU_IsbL-0925_LatLon0.15_PT036H.grib2 2026-04-30 15:59 1.5M
20260430T12Z_MSC_GDPS_WindU_IsbL-0950_LatLon0.15_PT036H.grib2 2026-04-30 15:59 1.4M
20260430T12Z_MSC_GDPS_WindU_IsbL-0970_LatLon0.15_PT036H.grib2 2026-04-30 15:59 1.4M
20260430T12Z_MSC_GDPS_WindU_IsbL-0985_LatLon0.15_PT036H.grib2 2026-04-30 15:59 1.4M
20260430T12Z_MSC_GDPS_WindU_IsbL-1000_LatLon0.15_PT036H.grib2 2026-04-30 15:59 1.4M
20260430T12Z_MSC_GDPS_WindU_IsbL-1015_LatLon0.15_PT036H.grib2 2026-04-30 15:59 1.3M
20260430T12Z_MSC_GDPS_WindV_AGL-10m_LatLon0.15_PT036H.grib2 2026-04-30 15:59 1.3M
20260430T12Z_MSC_GDPS_WindV_AGL-120m_LatLon0.15_PT036H.grib2 2026-04-30 15:59 1.0M
20260430T12Z_MSC_GDPS_WindV_AGL-40m_LatLon0.15_PT036H.grib2 2026-04-30 15:59 972K
20260430T12Z_MSC_GDPS_WindV_AGL-80m_LatLon0.15_PT036H.grib2 2026-04-30 15:59 1.0M
20260430T12Z_MSC_GDPS_WindV_IsbL-0001_LatLon0.15_PT036H.grib2 2026-04-30 15:59 780K
20260430T12Z_MSC_GDPS_WindV_IsbL-0005_LatLon0.15_PT036H.grib2 2026-04-30 15:59 767K
20260430T12Z_MSC_GDPS_WindV_IsbL-0010_LatLon0.15_PT036H.grib2 2026-04-30 15:59 798K
20260430T12Z_MSC_GDPS_WindV_IsbL-0020_LatLon0.15_PT036H.grib2 2026-04-30 15:59 855K
20260430T12Z_MSC_GDPS_WindV_IsbL-0030_LatLon0.15_PT036H.grib2 2026-04-30 15:59 856K
20260430T12Z_MSC_GDPS_WindV_IsbL-0050_LatLon0.15_PT036H.grib2 2026-04-30 15:59 906K
20260430T12Z_MSC_GDPS_WindV_IsbL-0100_LatLon0.15_PT036H.grib2 2026-04-30 15:59 1.1M
20260430T12Z_MSC_GDPS_WindV_IsbL-0150_LatLon0.15_PT036H.grib2 2026-04-30 15:59 1.0M
20260430T12Z_MSC_GDPS_WindV_IsbL-0175_LatLon0.15_PT036H.grib2 2026-04-30 15:59 1.0M
20260430T12Z_MSC_GDPS_WindV_IsbL-0200_LatLon0.15_PT036H.grib2 2026-04-30 15:59 844K
20260430T12Z_MSC_GDPS_WindV_IsbL-0225_LatLon0.15_PT036H.grib2 2026-04-30 15:59 854K
20260430T12Z_MSC_GDPS_WindV_IsbL-0250_LatLon0.15_PT036H.grib2 2026-04-30 15:59 851K
20260430T12Z_MSC_GDPS_WindV_IsbL-0275_LatLon0.15_PT036H.grib2 2026-04-30 15:59 875K
20260430T12Z_MSC_GDPS_WindV_IsbL-0300_LatLon0.15_PT036H.grib2 2026-04-30 15:59 863K
20260430T12Z_MSC_GDPS_WindV_IsbL-0350_LatLon0.15_PT036H.grib2 2026-04-30 15:59 875K
20260430T12Z_MSC_GDPS_WindV_IsbL-0400_LatLon0.15_PT036H.grib2 2026-04-30 15:59 877K
20260430T12Z_MSC_GDPS_WindV_IsbL-0450_LatLon0.15_PT036H.grib2 2026-04-30 15:59 1.1M
20260430T12Z_MSC_GDPS_WindV_IsbL-0500_LatLon0.15_PT036H.grib2 2026-04-30 15:59 1.1M
20260430T12Z_MSC_GDPS_WindV_IsbL-0550_LatLon0.15_PT036H.grib2 2026-04-30 15:59 1.1M
20260430T12Z_MSC_GDPS_WindV_IsbL-0600_LatLon0.15_PT036H.grib2 2026-04-30 15:59 1.1M
20260430T12Z_MSC_GDPS_WindV_IsbL-0650_LatLon0.15_PT036H.grib2 2026-04-30 15:59 1.2M
20260430T12Z_MSC_GDPS_WindV_IsbL-0700_LatLon0.15_PT036H.grib2 2026-04-30 15:59 1.2M
20260430T12Z_MSC_GDPS_WindV_IsbL-0750_LatLon0.15_PT036H.grib2 2026-04-30 15:59 1.3M
20260430T12Z_MSC_GDPS_WindV_IsbL-0800_LatLon0.15_PT036H.grib2 2026-04-30 15:59 1.3M
20260430T12Z_MSC_GDPS_WindV_IsbL-0850_LatLon0.15_PT036H.grib2 2026-04-30 15:59 1.4M
20260430T12Z_MSC_GDPS_WindV_IsbL-0875_LatLon0.15_PT036H.grib2 2026-04-30 15:59 1.4M
20260430T12Z_MSC_GDPS_WindV_IsbL-0900_LatLon0.15_PT036H.grib2 2026-04-30 15:59 1.5M
20260430T12Z_MSC_GDPS_WindV_IsbL-0925_LatLon0.15_PT036H.grib2 2026-04-30 15:59 1.5M
20260430T12Z_MSC_GDPS_WindV_IsbL-0950_LatLon0.15_PT036H.grib2 2026-04-30 15:59 1.4M
20260430T12Z_MSC_GDPS_WindV_IsbL-0970_LatLon0.15_PT036H.grib2 2026-04-30 15:59 1.4M
20260430T12Z_MSC_GDPS_WindV_IsbL-0985_LatLon0.15_PT036H.grib2 2026-04-30 15:59 1.4M
20260430T12Z_MSC_GDPS_WindV_IsbL-1000_LatLon0.15_PT036H.grib2 2026-04-30 15:59 1.4M
20260430T12Z_MSC_GDPS_WindV_IsbL-1015_LatLon0.15_PT036H.grib2 2026-04-30 15:59 1.3M